ASIASTAR

Last updated on Thu Oct 30 2025 00:02:47 GMT+0000 (Coordinated Universal Time)

1 26107U 00016A 25302.27781003 -.00000320 00000+0 00000+0 0 9997 2 26107 8.5873 60.5635 0007253 174.6152 7.7434 1.00270680 93604
UTC large
Height (km)
Speed (km/s)
/
Latitude / Longitude
Inclination (degrees)
Orbital Period (minutes)
Azimuth
Elevation
Range (km)
Doppler Factor

Next 0 passes for location: London (51.5072 / 0.1276)

Sorry there are no passes over London.